College Station, TX

2:45 AM CDT on April 27, 2017 (GMT -0500)
Easterwood

Weather History for KCLL - November, 2014

Change the Weather History Date:

Friday, November 28, 2014

  Actual Average Record
Temperature  
Mean Temperature 56 °F 56 °F  
Max Temperature 71 °F 67 °F 85 °F (1927)
Min Temperature 40 °F 46 °F 25 °F (1976)
Degree Days  
Heating Degree Days 9 10  
Month to date heating degree days 292 167  
Since 1 July heating degree days 295 204  
Cooling Degree Days 0 1  
Month to date cooling degree days 12 58  
Year to date cooling degree days 2925 3070  
Growing Degree Days 6 (Base 50)    
Moisture  
Dew Point 46 °F    
Average Humidity 70    
Maximum Humidity 86    
Minimum Humidity 53    
Precipitation  
Precipitation 0.00 in 0.11 in 1.75 in (1997)
Month to date precipitation 5.89 3.00  
Year to date precipitation 37.04 36.61  
Sea Level Pressure  
Sea Level Pressure 30.23 in    
Wind  
Wind Speed 9 mph (SSE)    
Max Wind Speed 22 mph    
Max Gust Speed 26 mph    
Visibility 10 miles    
Events      
T = Trace of Precipitation, MM = Missing Value Source: NWS Daily Summary

Daily Weather History Graph

Daily Weather History Graph

Search for Another Location

Airport or City:

Trip Planner

Search our weather history database for the weather conditions in past years. The results will help you decide how hot, cold, wet, or windy it might be!

Date:

Astronomy

Nov. 28, 2014 Rise Set
Actual Time 7:02 AM CST 5:24 PM CST
Civil Twilight 6:36 AM CST 5:50 PM CST
Nautical Twilight 6:06 AM CST 6:19 PM CST
Astronomical Twilight 5:37 AM CST 6:48 PM CST
Moon 12:10 PM CST (11/28) 11:58 PM CST (11/28)
Length of Visible Light 11h 13m
Length of Day
10h 21m
Waxing Crescent, 42% of the Moon is Illuminated
Nov 28
Waxing Crescent
Nov 29
First Quarter
Dec 6
Full
Dec 14
Last Quarter
Dec 21
New

Hourly Weather History & Observations

Time (CST) Temp. Windchill Dew Point Humidity Pressure Visibility Wind Dir Wind Speed Gust Speed Precip Events Conditions
12:53 AM 46.9 °F - 34.0 °F 61% 30.37 in 10.0 mi SSE 5.8 mph - N/A   Clear
1:53 AM 46.0 °F 43.9 °F 34.0 °F 63% 30.37 in 10.0 mi SSE 4.6 mph - N/A   Clear
2:53 AM 43.0 °F 41.3 °F 34.0 °F 71% 30.37 in 10.0 mi East 3.5 mph - N/A   Clear
3:53 AM 43.0 °F 41.3 °F 34.0 °F 71% 30.35 in 10.0 mi SE 3.5 mph - N/A   Clear
4:53 AM 43.0 °F 41.3 °F 34.0 °F 71% 30.34 in 10.0 mi East 3.5 mph - N/A   Clear
5:53 AM 41.0 °F 38.0 °F 35.6 °F 81% 30.33 in 10.0 mi ESE 4.6 mph - N/A   Clear
6:53 AM 41.0 °F 38.0 °F 36.0 °F 82% 30.33 in 10.0 mi SE 4.6 mph - N/A   Clear
7:53 AM 45.0 °F 41.8 °F 39.9 °F 82% 30.33 in 10.0 mi SE 5.8 mph - N/A   Clear
8:53 AM 53.1 °F - 44.1 °F 71% 30.32 in 10.0 mi SSE 10.4 mph - N/A   Clear
9:53 AM 57.9 °F - 46.0 °F 65% 30.32 in 10.0 mi SSE 12.7 mph - N/A   Clear
10:53 AM 62.1 °F - 48.9 °F 62% 30.30 in 10.0 mi South 15.0 mph - N/A   Partly Cloudy
11:53 AM 66.0 °F - 51.1 °F 59% 30.25 in 10.0 mi South 12.7 mph - N/A   Clear
12:53 PM 69.1 °F - 53.1 °F 57% 30.20 in 10.0 mi South 16.1 mph - N/A   Partly Cloudy
1:53 PM 70.0 °F - 53.1 °F 55% 30.16 in 10.0 mi SSW 18.4 mph 25.3 mph N/A   Mostly Cloudy
2:53 PM 70.0 °F - 53.1 °F 55% 30.15 in 10.0 mi SSW 15.0 mph 21.9 mph N/A   Mostly Cloudy
3:53 PM 71.1 °F - 53.1 °F 53% 30.13 in 10.0 mi South 11.5 mph - N/A   Clear
4:53 PM 69.1 °F - 52.0 °F 54% 30.13 in 10.0 mi South 8.1 mph - N/A   Clear
5:53 PM 63.0 °F - 52.0 °F 67% 30.12 in 10.0 mi South 8.1 mph - N/A   Clear
6:53 PM 63.0 °F - 53.1 °F 70% 30.12 in 10.0 mi South 8.1 mph - N/A   Clear
7:53 PM 63.0 °F - 53.1 °F 70% 30.12 in 10.0 mi South 10.4 mph - N/A   Clear
8:53 PM 61.0 °F - 53.1 °F 75% 30.12 in 10.0 mi South 11.5 mph - N/A   Clear
9:53 PM 59.0 °F - 53.1 °F 81% 30.11 in 10.0 mi South 10.4 mph - N/A   Clear
10:53 PM 57.9 °F - 53.1 °F 84% 30.11 in 10.0 mi South 8.1 mph - N/A   Clear
11:53 PM 57.0 °F - 53.1 °F 87% 30.09 in 10.0 mi South 9.2 mph - N/A   Clear